Location: Celina Division
(33.3022°N, 96.7580°W)
Time: 12:46:07
(UTC+00:00)

NOAA 18 - Visible Passes

Search period start: 02 April 2023 00:00
Search period end: 12 April 2023 00:00
Orbit: 839 x 859 km, 98.9° (Epoch: 02 April)

Date Brightness Start Highest point End Pass type
(mag) Time Alt. Az. Time Alt. Az. Time Alt. Az.
02 Apr 7.5 03:54:54 16° N 03:54:54 16° N 03:56:00 10° N visible
03 Apr 7.4 03:42:26 15° NNE 03:42:26 15° NNE 03:43:32 10° N visible
04 Apr 7.4 03:29:59 14° NNE 03:29:59 14° NNE 03:30:59 10° NNE visible
04 Apr 8.1 05:11:57 11° NNW 05:11:57 11° NNW 05:12:16 10° NNW visible
05 Apr 7.5 03:17:32 12° NNE 03:17:32 12° NNE 03:18:16 10° NNE visible
05 Apr 7.9 04:59:30 14° NNW 04:59:30 14° NNW 05:00:15 10° NNW visible
06 Apr 7.5 03:05:05 10° NE 03:05:05 10° NE 03:05:16 10° NE visible
06 Apr 7.7 04:47:03 16° NNW 04:47:03 16° NNW 04:48:10 10° NNW visible
07 Apr 7.5 04:34:36 19° NNW 04:34:36 19° NNW 04:36:01 10° NNW visible
08 Apr 7.4 04:22:09 20° N 04:22:09 20° N 04:23:47 10° N visible
09 Apr 7.2 04:09:41 21° N 04:09:41 21° N 04:11:29 10° N visible
10 Apr 7.2 03:57:14 21° NNE 03:57:14 21° NNE 03:59:07 10° N visible
11 Apr 7.1 03:44:46 20° NNE 03:44:46 20° NNE 03:46:41 10° N visible
11 Apr 8.0 05:26:44 12° NW 05:26:44 12° NW 05:27:09 10° NW visible
